Location: Buffign�court
(47.8126°N, 6.0176°E)
Time: 20:02:35
(UTC+00:00)

Meteor 1-24 Rocket - Pass Details

Date: 16 June 2021
Orbit: 791 x 927 km, 81.3° (Epoch: 31 July)

Event Time Altitude Azimuth Distance (km) Brightness Sun altitude
Exits shadow 21:31:03 19° 150° (SSE) 1,799 4.8 -13.4°
Maximum altitude 21:34:18 40° 92° (E) 1,184 4.2 -13.7°
Drops below altitude 10° 21:39:21 10° 25° (NNE) 2,428 6.6 -14.1°
Sets 21:41:54 0° 18° (NNE) 3,385 7.6 -14.3°
